Flag for U.S.A. Weather past 2 weeks in Newark, New Jersey, U.S.A.

Now
79 °F

Partly sunny.


Feels Like: 80 °F
Forecast: 67 / 86 °F
Wind: 16 mph from Southwest

Location: Newark International Airport

Current Time: May 25, 2015 at 10:09:05 PM

Latest Report: May 25, 2015 at 8:51 PM


Visibility: 10 mi

Pressure: 30.16 "Hg

Humidity: 45%

Dew point: 56 °F

Location of NewarkLocation

Historic Weather in Newark — Graph

°F

Newark temperature yesterday

Maximum temperature yesterday: 82 °F (at 1:51 PM)
Minimum temperature yesterday: 50 °F (at 3:51 AM)
Average temperature yesterday: 68 °F

Past Weeks' High & Low Weather Summary

 TemperatureHumidityPressure
High89 °F (May 25, 2:51 PM)100% (May 12, 2:58 AM)30.42 "Hg (May 12, 2:58 AM)
Low49 °F (May 23, 5:51 AM)14% (May 14, 3:51 PM)29.75 "Hg (May 12, 6:51 PM)
Average67 °F56%30.10 "Hg
* Reported May 10 8:51 PM — May 25 8:51 PM, Newark, Weather by CustomWeather, © 2015

Note: Actual official high and low records may vary slightly from our data, if they occured in-between our weather recording intervals... More about our weather records

Advertising

Newark weather history for previous 24 hours

 ConditionsComfort  
Time TempWeatherWind HumidityBarometerVisibility
8:51 PM
Mon, May 25
79 °FPartly sunny.16 mph45%30.16 "Hg10 mi
7:51 PM81 °FPartly sunny.22 mph42%30.15 "Hg10 mi
6:51 PM84 °FPartly sunny.17 mph36%30.15 "Hg10 mi
5:51 PM87 °FPartly sunny.20 mph32%30.14 "Hg10 mi
4:51 PM88 °FPartly sunny.20 mph31%30.14 "Hg10 mi
3:51 PM88 °FPartly sunny.17 mph29%30.15 "Hg10 mi
2:51 PM89 °FPartly sunny.12 mph29%30.16 "Hg10 mi
1:51 PM88 °FScattered clouds.14 mph31%30.19 "Hg10 mi
12:59 PM84 °FScattered clouds.12 mph40%30.21 "Hg10 mi
11:51 AM83 °FScattered clouds.12 mph43%30.23 "Hg10 mi
10:51 AM80 °FScattered clouds.7 mph45%30.24 "Hg10 mi
9:51 AM75 °FBroken clouds.6 mph55%30.26 "Hg10 mi
8:51 AM68 °FPartly sunny.6 mph68%30.27 "Hg10 mi
7:51 AM65 °FPartly sunny.6 mph70%30.27 "Hg10 mi
6:51 AM64 °FPartly sunny.6 mph73%30.27 "Hg10 mi
5:51 AM62 °FPassing clouds.5 mph75%30.26 "Hg10 mi
4:51 AM61 °FPassing clouds.5 mph72%30.26 "Hg10 mi
3:51 AM62 °FPassing clouds.7 mph70%30.25 "Hg10 mi
2:51 AM63 °FPassing clouds.7 mph65%30.25 "Hg10 mi
1:51 AM62 °FPassing clouds.7 mph65%30.25 "Hg10 mi
12:51 AM65 °FPassing clouds.6 mph59%30.26 "Hg10 mi
11:51 PM
Sun, May 24
68 °FOvercast.7 mph55%30.25 "Hg10 mi
10:51 PM69 °FMostly cloudy.9 mph51%30.26 "Hg10 mi
Weather by CustomWeather, © 2015

See weather overviewHow to use our weather pages